Dumas, TX

12:29 AM CDT on April 30, 2017 (GMT -0500)
Moore County

Weather History for KDUX - November, 2011

Change the Weather History Date:

Wednesday, November 30, 2011

  Actual Average (KDHT) Record (KDHT)
Temperature  
Mean Temperature 50 °F -  
Max Temperature 68 °F 50 °F 76 °F (1973)
Min Temperature 32 °F 24 °F 3 °F (2004)
Degree Days  
Heating Degree Days 15    
Moisture  
Dew Point 24 °F    
Average Humidity 53    
Maximum Humidity 80    
Minimum Humidity 15    
Precipitation  
Precipitation 0.00 in - - ()
Sea Level Pressure  
Sea Level Pressure 29.99 in    
Wind  
Wind Speed 15 mph (SW)    
Max Wind Speed 33 mph    
Max Gust Speed 43 mph    
Visibility 10 miles    
Events      
Averages and records for this station are not official NWS values.
T = Trace of Precipitation, MM = Missing Value Source: NWS Daily Summary

Daily Weather History Graph

Daily Weather History Graph

Search for Another Location

Airport or City:

Trip Planner

Search our weather history database for the weather conditions in past years. The results will help you decide how hot, cold, wet, or windy it might be!

Date:

Astronomy

Nov. 30, 2011 Rise Set
Actual Time 7:38 AM CST 5:34 PM CST
Civil Twilight 7:10 AM CST 6:02 PM CST
Nautical Twilight 6:39 AM CST 6:34 PM CST
Astronomical Twilight 6:08 AM CST 7:04 PM CST
Moon 12:03 PM CST 11:27 PM CST
Length of Visible Light 10h 51m
Length of Day
9h 55m
Waxing Crescent, 34% of the Moon is Illuminated
Nov 30
Waxing Crescent
Dec 2
First Quarter
Dec 10
Full
Dec 17
Last Quarter
Dec 24
New

Hourly Weather History & Observations

Time (CST) Temp. Windchill Dew Point Humidity Pressure Visibility Wind Dir Wind Speed Gust Speed Precip Events Conditions
12:15 AM 32.0 °F 24.2 °F 26.6 °F 80% 30.24 in 10.0 mi SW 9.2 mph - N/A   Clear
12:35 AM 32.0 °F 24.8 °F 26.6 °F 80% 30.22 in 10.0 mi SSW 8.1 mph - N/A   Clear
12:55 AM 32.0 °F 24.2 °F 26.6 °F 80% 30.21 in 10.0 mi SW 9.2 mph - N/A   Clear
1:15 AM 32.0 °F 23.0 °F 26.6 °F 80% 30.20 in 10.0 mi SW 11.5 mph - N/A   Clear
1:35 AM 32.0 °F 23.6 °F 26.6 °F 80% 30.20 in 10.0 mi SW 10.4 mph - N/A   Clear
1:55 AM 33.8 °F 25.3 °F 26.6 °F 75% 30.18 in 10.0 mi SW 11.5 mph - N/A   Clear
2:15 AM 32.0 °F 23.0 °F 26.6 °F 80% 30.17 in 10.0 mi SW 11.5 mph - N/A   Clear
2:35 AM 32.0 °F 24.2 °F 26.6 °F 80% 30.17 in 10.0 mi SW 9.2 mph - N/A   Clear
2:55 AM 32.0 °F 24.2 °F 26.6 °F 80% 30.17 in 10.0 mi SW 9.2 mph - N/A   Clear
3:15 AM 32.0 °F 22.5 °F 24.8 °F 75% 30.17 in 10.0 mi WSW 12.7 mph - N/A   Clear
3:35 AM 32.0 °F 22.1 °F 24.8 °F 75% 30.16 in 10.0 mi SW 13.8 mph - N/A   Clear
3:55 AM 32.0 °F 22.5 °F 26.6 °F 80% 30.15 in 10.0 mi SW 12.7 mph - N/A   Clear
4:15 AM 32.0 °F 22.1 °F 26.6 °F 80% 30.14 in 10.0 mi SW 13.8 mph - N/A   Clear
4:35 AM 32.0 °F 22.1 °F 26.6 °F 80% 30.12 in 10.0 mi SW 13.8 mph - N/A   Clear
4:55 AM 32.0 °F 22.5 °F 26.6 °F 80% 30.11 in 10.0 mi SW 12.7 mph - N/A   Clear
5:15 AM 32.0 °F 22.5 °F 26.6 °F 80% 30.10 in 10.0 mi SW 12.7 mph - N/A   Clear
5:35 AM 32.0 °F 23.0 °F 26.6 °F 80% 30.10 in 10.0 mi SW 11.5 mph - N/A   Clear
5:55 AM 32.0 °F 21.2 °F 26.6 °F 80% 30.08 in 10.0 mi SW 16.1 mph - N/A   Clear
6:15 AM 32.0 °F 20.5 °F 26.6 °F 80% 30.07 in 10.0 mi SW 18.4 mph - N/A   Clear
6:35 AM 32.0 °F 21.2 °F 26.6 °F 80% 30.07 in 10.0 mi SW 16.1 mph - N/A   Clear
6:55 AM 32.0 °F 20.8 °F 26.6 °F 80% 30.06 in 10.0 mi SW 17.3 mph - N/A   Clear
7:15 AM 32.0 °F 21.2 °F 26.6 °F 80% 30.06 in 10.0 mi SW 16.1 mph - N/A   Clear
7:35 AM 32.0 °F 21.6 °F 26.6 °F 80% 30.06 in 10.0 mi SW 15.0 mph - N/A   Clear
7:55 AM 32.0 °F 20.8 °F 26.6 °F 80% 30.05 in 10.0 mi SW 17.3 mph - N/A   Clear
8:15 AM 32.0 °F 20.8 °F 26.6 °F 80% 30.04 in 10.0 mi SW 17.3 mph - N/A   Clear
8:35 AM 33.8 °F 24.3 °F 26.6 °F 75% 30.03 in 10.0 mi SW 13.8 mph - N/A   Clear
8:55 AM 35.6 °F 26.6 °F 26.6 °F 70% 30.03 in 10.0 mi SW 13.8 mph - N/A   Clear
9:15 AM 39.2 °F 30.8 °F 28.4 °F 65% 30.02 in 10.0 mi SW 15.0 mph - N/A   Clear
9:35 AM 42.8 °F 36.2 °F 28.4 °F 57% 30.02 in 10.0 mi SSW 12.7 mph - N/A   Clear
10:15 AM 46.4 °F 39.2 °F 26.6 °F 46% 30.00 in 10.0 mi SSW 18.4 mph 24.2 mph N/A   Clear
10:35 AM 48.2 °F - 26.6 °F 43% 29.99 in 10.0 mi SSW 18.4 mph - N/A   Clear
10:55 AM 50.0 °F - 26.6 °F 40% 29.98 in 10.0 mi SSW 16.1 mph - N/A   Clear
11:15 AM 51.8 °F - 26.6 °F 38% 29.97 in 10.0 mi SSW 17.3 mph 25.3 mph N/A   Clear
11:35 AM 51.8 °F - 26.6 °F 38% 29.95 in 10.0 mi South 19.6 mph 23.0 mph N/A   Clear
11:55 AM 55.4 °F - 26.6 °F 33% 29.93 in 10.0 mi SSW 18.4 mph 26.5 mph N/A   Clear
12:15 PM 57.2 °F - 26.6 °F 31% 29.91 in 10.0 mi SSW 21.9 mph - N/A   Clear
12:35 PM 60.8 °F - 26.6 °F 27% 29.89 in 10.0 mi SSW 21.9 mph 27.6 mph N/A   Clear
12:55 PM 62.6 °F - 24.8 °F 24% 29.87 in 10.0 mi SSW 25.3 mph 28.8 mph N/A   Clear
1:15 PM 64.4 °F - 23.0 °F 21% 29.86 in 10.0 mi SSW 24.2 mph 31.1 mph N/A   Clear
1:35 PM 68.0 °F - 21.2 °F 17% 29.84 in 10.0 mi SW 29.9 mph 33.4 mph N/A   Clear
1:55 PM 68.0 °F - 19.4 °F 16% 29.82 in 10.0 mi SW 32.2 mph 39.1 mph N/A   Clear
2:15 PM 68.0 °F - 19.4 °F 16% 29.81 in 10.0 mi SW 33.4 mph 40.3 mph N/A   Clear
2:35 PM 68.0 °F - 19.4 °F 16% 29.81 in 10.0 mi SW 31.1 mph 38.0 mph N/A   Clear
2:55 PM 68.0 °F - 17.6 °F 15% 29.79 in 10.0 mi SW 32.2 mph 38.0 mph N/A   Clear
3:15 PM 68.0 °F - 19.4 °F 16% 29.78 in 10.0 mi SW 33.4 mph 38.0 mph N/A   Clear
3:35 PM 68.0 °F - 19.4 °F 16% 29.78 in 10.0 mi SW 31.1 mph 36.8 mph N/A   Clear
3:55 PM 68.0 °F - 19.4 °F 16% 29.77 in 10.0 mi SW 33.4 mph 42.6 mph N/A   Clear
4:15 PM 66.2 °F - 19.4 °F 17% 29.77 in 10.0 mi SW 29.9 mph 39.1 mph N/A   Clear
4:35 PM 66.2 °F - 19.4 °F 17% 29.77 in 10.0 mi SW 31.1 mph 38.0 mph N/A   Clear
4:55 PM 64.4 °F - 17.6 °F 16% 29.76 in 10.0 mi SW 24.2 mph 32.2 mph N/A   Clear
5:15 PM 62.6 °F - 19.4 °F 19% 29.76 in 10.0 mi SSW 23.0 mph 28.8 mph N/A   Clear
5:35 PM 60.8 °F - 17.6 °F 19% 29.76 in 10.0 mi SSW 20.7 mph - N/A   Clear
5:55 PM 59.0 °F - 19.4 °F 22% 29.76 in 10.0 mi SSW 18.4 mph - N/A   Clear
6:15 PM 57.2 °F - 19.4 °F 23% 29.76 in 10.0 mi SSW 17.3 mph - N/A   Clear
6:35 PM 55.4 °F - 19.4 °F 25% 29.77 in 10.0 mi SSW 16.1 mph - N/A   Clear
6:55 PM 55.4 °F - 19.4 °F 25% 29.77 in 10.0 mi South 18.4 mph - N/A   Clear
7:15 PM 53.6 °F - 19.4 °F 26% 29.78 in 10.0 mi South 12.7 mph - N/A   Clear
7:35 PM 51.8 °F - 21.2 °F 30% 29.78 in 10.0 mi South 13.8 mph 19.6 mph N/A   Clear
7:55 PM 51.8 °F - 23.0 °F 33% 29.78 in 10.0 mi SSW 15.0 mph - N/A   Clear
8:15 PM 51.8 °F - 23.0 °F 33% 29.78 in 10.0 mi SSW 20.7 mph - N/A   Clear
8:35 PM 50.0 °F - 23.0 °F 35% 29.79 in 10.0 mi SSW 19.6 mph 23.0 mph N/A   Clear
8:55 PM 50.0 °F - 23.0 °F 35% 29.79 in 10.0 mi SSW 17.3 mph - N/A   Clear
9:15 PM 50.0 °F - 23.0 °F 35% 29.79 in 10.0 mi SSW 19.6 mph 24.2 mph N/A   Clear
9:35 PM 50.0 °F - 23.0 °F 35% 29.79 in 10.0 mi SSW 23.0 mph - N/A   Clear
9:55 PM 50.0 °F - 23.0 °F 35% 29.79 in 10.0 mi SSW 23.0 mph 27.6 mph N/A   Clear
10:15 PM 48.2 °F - 21.2 °F 34% 29.80 in 10.0 mi SSW 21.9 mph - N/A   Clear
10:35 PM 46.4 °F 39.0 °F 21.2 °F 37% 29.81 in 10.0 mi SSW 19.6 mph - N/A   Clear
11:15 PM 44.6 °F 36.9 °F 21.2 °F 39% 29.82 in 10.0 mi SSW 18.4 mph - N/A   Clear
11:35 PM 44.6 °F 37.2 °F 21.2 °F 39% 29.82 in 10.0 mi SW 17.3 mph - N/A   Clear
11:55 PM 44.6 °F 36.9 °F 21.2 °F 39% 29.83 in 10.0 mi SW 18.4 mph - N/A   Clear